Volver al catálogo

FENGYUN 1C DEB

ActivoPO
NORAD 29892·DEBRIS·🇨🇳 China

Lanzado May 10, 1999 desde Taiyuan Satellite Launch Center

Loading…

Próximos Pases (próximas 24 horas)

TLE

ActualizadoSource: Space-Track

Época: Sep 14, 2026, 22:47 UTC

1 29892U 99025GN  26257.94978720  .00005583  00000-0  15923-2 0  9996
2 29892  99.2008  68.3405 0176847 213.8818 300.6993 14.36881259  6115

Sigue FENGYUN 1C DEB en tiempo real con AllMySat

Download on the App Store